This is the latest recevied weather packets stored in our database for station/object IZ7EXI-13. If no packets are shown the sender has not sent any weather packets the latest 10 day(s).
| Time | Temp. | Humidity | Pressure | Rain* | Wind** | Luminosity | Snow |
|---|---|---|---|---|---|---|---|
| 1777244759 | 15.56° C | 53% | 1020.9 hPa | - | - | - | - |
| 1777243859 | 15.56° C | 52% | 1021 hPa | - | - | - | - |
| 1777242958 | 15.56° C | 53% | 1020.8 hPa | - | - | - | - |
| 1777242058 | 16.11° C | 52% | 1020.9 hPa | - | - | - | - |
| 1777241158 | 16.11° C | 51% | 1021 hPa | - | - | - | - |
| 1777240258 | 16.11° C | 51% | 1020.8 hPa | - | - | - | - |
| 1777239388 | 16.11° C | 51% | 1020.8 hPa | - | - | - | - |
| 1777239357 | 16.11° C | 51% | 1020.8 hPa | - | - | - | - |
| 1777238457 | 16.11° C | 50% | 1020.8 hPa | - | - | - | - |
| 1777237557 | 16.11° C | 49% | 1020.8 hPa | - | - | - | - |
| 1777236657 | 16.11° C | 48% | 1020.8 hPa | - | - | - | - |
| 1777235757 | 16.11° C | 46% | 1020.7 hPa | - | - | - | - |
| 1777234888 | 16.67° C | 44% | 1020.6 hPa | - | - | - | - |
| 1777234856 | 16.67° C | 44% | 1020.6 hPa | - | - | - | - |
| 1777233956 | 17.78° C | 38% | 1020.4 hPa | - | - | - | - |
| 1777233056 | 17.78° C | 36% | 1020.3 hPa | - | - | - | - |
| 1777232155 | 18.89° C | 30% | 1020.2 hPa | - | - | - | - |
| 1777231254 | 18.89° C | 27% | 1020.1 hPa | - | - | - | - |
| 1777230354 | 18.89° C | 26% | 1020.1 hPa | - | - | - | - |
| 1777229454 | 19.44° C | 27% | 1019.7 hPa | - | - | - | - |
| 1777228554 | 19.44° C | 23% | 1019.6 hPa | - | - | - | - |
| 1777227654 | 20° C | 22% | 1019.5 hPa | - | - | - | - |
| 1777226754 | 20.56° C | 22% | 1019.4 hPa | - | - | - | - |
| 1777225853 | 21.67° C | 21% | 1019 hPa | - | - | - | - |
| 1777224953 | 23.89° C | 19% | 1018.9 hPa | - | - | - | - |
* Rain since midnight (hover to see other rain measurements)
** Current wind speed in m/s (hover to see current wind gust speed)